RH
72 74 77 76 75 78 80 77 76 78 78 78 79 75 70 71 71 67 63 62 62 60 58 54 51 51 54 56 58 59 58 57 55 51 45 42 38 32 31 34 37 40 40 37 36 37 34 33 32 30 29 29 28 27 26 25 24 24 25 24 24 24 25 25 26 27 26 26 27 27 28 29 29 30 30 30 31 31 32 32 33 34 35 36 39
72 73 77 77 76 78 82 81 79 80 80 81 83 81 75 71 72 70 65 64 64 62 63 61 56 55 58 60 62 63 62 62 60 55 48 45 42 37 36 39 39 38 39 39 40 40 37 34 33 31 30 29 29 28 27 26 25 25 25 24 24 24 24 24 26 27 28 27 26 26 27 28 28 29 29 29 29 29 30 30 30 31 32 32 35
73 73 78 80 79 82 85 83 81 80 81 84 87 87 81 71 70 73 70 68 69 69 71 71 63 59 62 64 66 66 66 65 63 59 54 51 48 41 38 41 42 42 44 43 41 40 38 36 34 33 31 31 30 29 29 28 28 28 27 26 25 25 25 26 27 29 29 29 28 28 29 29 29 29 30 29 29 30 29 30 30 31 31 31 31
73 73 74 76 77 82 84 82 82 82 85 89 90 89 86 76 71 74 74 75 78 77 77 77 69 64 65 67 70 70 68 67 67 65 61 55 51 45 40 41 44 43 42 42 41 40 39 38 37 35 33 33 32 31 31 31 31 31 31 29 28 28 28 28 28 29 31 30 30 30 31 31 30 30 30 30 29 29 30 29 29 30 30 30 30
75 75 74 74 74 78 81 82 83 85 86 90 91 90 89 85 78 77 78 78 79 79 80 79 75 70 69 70 73 73 71 70 70 69 66 60 56 51 44 41 41 38 36 39 41 41 40 39 38 37 37 36 35 34 34 34 33 33 33 32 31 31 31 30 30 30 30 31 30 31 32 32 32 32 31 30 30 30 30 29 29 29 29 30 30
77 77 77 78 77 78 81 83 84 83 82 85 90 93 92 91 88 87 87 84 81 81 82 83 81 77 75 74 74 76 75 72 69 69 67 64 62 57 50 45 41 37 35 38 41 41 41 41 40 40 40 39 38 37 36 35 35 34 34 33 33 33 33 32 32 32 32 31 31 32 34 33 33 33 32 31 31 31 31 31 30 30 30 29 28
76 77 77 78 78 77 78 80 80 81 83 84 88 92 93 94 95 95 93 90 87 86 86 86 86 82 81 79 78 78 76 70 66 67 67 67 67 62 53 45 40 38 39 40 40 40 41 42 41 41 40 40 40 40 39 38 37 36 35 34 34 34 34 33 34 35 34 34 34 34 34 35 34 34 32 32 32 32 32 32 31 30 29 28 26
71 74 76 76 76 75 75 76 76 78 84 85 86 89 91 94 95 96 95 94 92 92 90 89 89 87 84 82 80 80 76 70 68 67 67 69 69 61 51 45 42 39 38 37 39 42 42 42 41 40 39 39 39 39 39 38 38 38 38 36 35 34 35 35 35 35 35 35 35 35 35 35 34 33 33 32 33 33 33 34 33 31 29 26 24
68 70 73 74 75 75 75 77 76 77 82 86 87 88 87 88 92 95 96 95 94 94 91 91 91 88 85 83 81 81 79 74 72 70 68 68 64 55 49 47 43 39 38 39 41 43 42 41 40 40 39 37 36 36 36 36 36 37 37 37 36 34 34 36 36 37 37 36 36 36 35 35 34 34 34 34 34 34 34 34 33 32 30 26 23
67 66 68 69 72 74 75 77 78 80 82 85 88 89 86 85 88 93 93 90 93 95 93 93 92 87 85 85 84 83 82 78 75 74 72 70 63 53 46 44 39 37 41 45 44 43 42 42 40 39 39 37 35 33 33 33 33 34 35 34 33 32 33 36 38 39 40 39 38 38 37 36 36 36 36 36 35 35 35 35 34 33 33 29 25
65 66 66 67 69 71 74 76 79 82 86 88 90 91 90 87 87 88 85 82 88 93 93 92 90 88 88 88 86 85 84 83 80 78 75 71 63 51 44 42 37 35 40 46 46 44 44 42 41 40 38 37 36 33 32 32 31 32 32 32 32 34 35 36 38 38 40 41 40 40 39 38 38 38 37 37 37 36 36 35 35 35 34 32 27
68 70 72 72 70 70 72 74 77 82 87 90 92 93 93 89 85 84 83 83 87 92 92 91 90 90 90 88 86 85 85 85 83 78 75 70 60 49 43 41 37 36 43 49 48 46 45 43 42 40 38 37 36 34 32 32 31 31 31 32 35 38 38 38 37 36 37 39 40 41 41 40 39 39 38 37 36 35 34 34 35 34 32 31 28
67 73 76 78 76 71 69 71 74 79 83 86 88 91 94 92 88 87 87 89 92 94 94 92 91 92 92 90 88 86 85 85 82 77 74 69 58 48 43 42 39 41 49 52 49 47 46 44 42 40 38 37 35 34 34 34 34 32 31 34 37 38 39 38 36 35 35 36 36 37 39 41 40 38 36 35 33 32 32 31 32 31 30 30 28
61 68 74 82 84 80 75 72 71 72 77 80 82 85 89 91 92 92 91 90 92 95 96 96 93 93 93 90 87 85 85 85 82 78 75 68 58 49 45 45 43 43 48 50 48 48 46 43 41 39 38 36 35 34 33 34 34 31 31 35 38 38 39 36 34 34 34 33 32 31 31 34 36 35 34 33 33 32 32 31 31 31 30 30 29
58 63 69 76 80 82 84 83 78 78 80 81 81 82 83 85 88 91 93 92 92 93 95 96 95 94 94 92 88 86 87 88 86 83 77 69 61 54 50 49 47 47 50 51 50 50 47 42 40 38 37 36 36 34 32 32 32 30 29 35 40 40 39 35 33 33 32 29 26 24 25 31 34 34 34 34 33 33 33 32 32 32 31 31 30
52 55 62 70 73 76 82 84 83 87 87 83 81 81 81 83 86 89 91 91 92 92 93 94 95 95 95 93 89 88 91 92 91 87 79 71 66 60 55 52 51 53 56 55 52 51 46 42 40 39 38 37 35 35 34 33 32 28 26 32 38 37 36 35 34 32 29 25 21 20 26 33 35 33 33 33 33 33 32 32 32 32 31 32 31
50 49 52 59 64 67 73 76 79 86 87 80 77 78 78 78 80 82 85 87 89 91 92 93 94 95 95 93 89 90 92 94 93 88 80 74 70 63 57 55 55 60 62 57 52 48 46 44 42 39 37 36 36 36 35 34 32 28 26 28 28 28 32 35 33 29 24 20 18 20 28 35 34 32 32 31 31 31 32 32 33 32 32 32 31
47 46 47 51 54 57 63 68 72 78 80 75 71 71 73 74 74 75 78 82 86 89 91 92 93 94 94 94 91 91 93 94 93 88 81 77 72 65 59 57 60 65 64 57 50 46 43 43 42 37 34 32 32 32 32 31 30 27 26 24 20 22 29 30 26 21 17 16 19 25 31 34 32 30 29 29 30 30 31 32 32 32 32 31 31
37 40 44 47 51 54 57 59 62 71 82 84 76 68 65 67 69 71 74 76 80 85 88 92 94 94 95 95 94 92 92 94 94 88 81 78 74 68 62 60 63 68 65 57 51 46 42 40 40 37 32 28 27 26 25 26 25 22 20 18 14 15 18 18 16 16 15 17 23 29 32 32 31 28 27 28 30 31 32 32 32 32 31 31 32
31 34 37 40 44 49 52 52 53 61 74 83 84 77 67 61 61 65 69 73 76 79 82 86 90 93 94 96 95 93 92 94 95 90 84 80 78 73 66 61 64 69 66 58 54 50 44 41 38 36 33 30 27 26 24 24 22 18 15 13 11 11 11 11 13 14 15 19 24 28 29 29 29 28 27 29 30 30 31 31 31 31 32 33 35
28 30 33 35 37 39 39 41 45 49 55 65 77 81 72 62 59 59 61 65 69 73 77 80 83 86 90 93 93 91 91 94 95 92 87 84 82 77 70 64 64 67 67 62 56 51 47 43 39 37 36 35 34 31 26 22 18 14 12 11 11 10 11 12 14 15 18 20 23 26 28 28 28 28 27 29 30 30 30 31 31 32 33 35 38
26 27 29 33 35 35 33 32 33 37 43 53 66 73 68 63 63 60 58 60 62 66 70 74 77 81 86 90 91 89 90 91 93 93 90 88 87 83 75 68 65 63 64 63 58 52 48 43 39 38 38 38 38 33 26 19 15 12 11 11 11 11 12 14 15 17 19 19 21 24 27 27 28 28 28 29 29 30 30 31 32 34 36 38 40
27 27 28 29 31 33 33 30 28 29 34 42 50 55 59 65 68 64 58 58 59 60 64 68 72 75 80 85 87 87 88 89 91 92 91 90 91 87 78 70 65 63 62 61 59 55 50 45 41 40 39 38 36 31 23 16 13 11 11 11 11 12 14 15 18 20 20 20 23 27 27 26 27 28 29 29 30 30 30 30 31 34 37 40 42
29 28 28 29 29 31 32 31 28 28 31 35 36 38 46 60 72 74 69 63 60 60 61 62 65 68 72 76 79 82 84 86 88 91 92 91 91 88 80 71 67 65 62 60 58 53 47 43 42 40 38 35 31 26 21 15 12 11 11 11 12 14 15 18 20 21 21 23 27 27 25 25 27 29 29 30 30 31 30 29 30 34 38 41 43
30 29 28 28 28 30 31 30 28 28 31 34 35 36 38 45 58 73 81 78 72 67 64 63 63 64 66 69 73 76 80 82 85 90 92 92 91 89 83 75 69 67 64 61 55 46 38 37 38 35 32 30 27 24 20 16 13 11 11 12 13 16 18 20 23 23 22 24 27 26 25 26 28 28 29 30 31 30 28 28 30 33 37 41 43
29 27 26 26 27 29 31 32 31 30 33 36 39 42 41 39 43 55 70 80 82 77 71 68 66 64 64 67 70 71 72 75 81 88 92 92 91 91 88 80 72 68 67 64 57 45 36 34 32 30 29 29 26 24 21 17 13 12 12 13 14 18 20 23 25 25 21 21 24 26 26 26 28 28 29 30 30 29 27 26 28 31 34 38 42
31 27 26 26 28 31 33 32 31 32 34 38 43 47 49 49 48 48 53 63 74 79 80 78 73 68 65 65 67 69 69 69 74 83 91 93 92 93 92 86 77 71 69 69 63 51 41 35 33 31 31 30 27 25 22 19 14 13 13 15 17 21 23 25 27 24 18 16 20 22 23 25 28 29 29 30 29 27 26 25 26 29 33 36 40
36 33 31 30 31 33 34 33 33 34 37 40 45 48 51 53 53 49 47 49 56 66 78 86 85 77 69 64 65 66 67 66 68 75 86 91 92 93 93 90 82 74 71 71 67 57 46 38 35 34 34 31 29 26 23 21 18 15 15 18 21 24 26 29 29 26 22 18 16 17 21 26 29 30 29 29 28 27 25 25 26 29 31 33 38
40 40 39 36 35 35 35 36 37 38 40 44 47 49 51 53 52 49 48 45 45 51 62 73 79 79 73 69 66 66 67 69 69 70 78 86 89 90 91 91 87 79 73 71 68 62 50 40 36 37 35 33 31 27 24 25 24 22 22 24 26 28 31 34 33 31 29 21 15 16 24 28 29 30 30 29 28 27 26 25 26 29 30 31 35
43 41 39 38 38 38 38 39 41 41 41 44 48 49 49 49 49 50 50 49 49 51 52 57 62 66 65 66 66 64 66 71 72 71 75 81 86 89 90 92 90 82 75 72 70 65 57 47 40 38 36 33 32 31 31 31 31 29 28 29 31 32 33 34 33 31 26 18 13 17 24 27 28 30 30 28 28 29 28 27 27 29 30 30 33
42 40 39 39 40 40 41 42 44 44 43 43 46 48 46 44 45 48 52 57 63 63 58 56 57 58 58 60 61 60 61 64 67 70 73 79 85 89 89 90 91 87 79 74 71 69 68 61 49 40 39 40 39 39 38 36 34 31 30 31 33 33 33 32 31 27 20 14 15 19 23 27 30 30 30 29 28 29 29 29 28 29 29 29 31
43 43 43 42 41 41 42 42 42 43 45 47 48 45 42 42 45 48 50 56 67 76 75 70 67 65 62 62 62 61 62 63 63 66 70 76 83 88 88 88 91 90 85 77 73 73 75 67 50 42 46 48 46 43 40 36 33 31 29 30 32 34 35 33 28 23 17 14 17 20 22 26 29 28 28 30 29 28 28 28 28 29 29 29 30
47 47 47 44 42 41 41 41 42 46 52 60 61 53 45 44 49 52 49 51 66 84 89 82 77 72 68 66 64 61 62 64 64 64 68 74 80 85 87 88 91 92 88 80 74 76 76 63 45 41 49 50 46 43 39 35 32 30 29 30 32 34 34 30 25 21 16 11 13 18 21 25 28 27 29 32 32 30 29 28 28 30 30 29 29
48 49 50 47 44 46 45 44 48 56 63 70 71 62 51 47 50 53 53 56 69 86 91 86 82 78 74 70 66 62 63 66 66 66 69 74 79 85 89 90 91 92 89 80 75 76 75 61 44 42 49 50 47 44 39 34 30 27 27 28 29 30 30 26 22 21 16 10 14 21 22 23 27 29 31 34 34 32 31 29 29 31 30 29 29
45 47 49 48 50 56 53 47 50 59 64 65 63 56 49 47 51 55 59 64 74 83 85 82 81 78 75 72 68 63 62 66 69 69 70 74 81 89 93 91 91 92 89 81 76 75 73 60 46 42 48 50 47 44 40 33 27 24 24 25 25 25 26 24 22 20 14 11 17 22 20 21 27 30 31 35 36 35 33 32 30 31 31 30 31
46 46 47 48 51 54 50 45 48 53 54 53 52 50 49 49 51 53 58 67 76 82 82 78 75 72 71 69 65 62 61 65 70 71 70 72 80 89 92 92 94 95 90 81 76 75 72 62 49 45 48 50 46 43 38 30 25 23 24 25 25 25 25 24 21 18 13 10 13 15 13 19 27 30 31 36 38 37 36 33 30 31 32 31 30
48 48 48 49 50 49 47 47 48 50 51 53 54 54 53 53 53 54 58 67 75 79 77 73 68 66 65 62 60 60 61 63 67 69 69 69 74 81 88 91 94 93 88 82 77 76 72 62 50 47 51 51 46 42 36 29 25 25 26 26 27 27 26 24 21 17 12 8 11 13 13 20 29 32 31 35 38 38 37 34 30 30 31 30 27
47 49 49 51 51 51 50 51 52 54 56 58 58 59 58 57 59 64 69 72 75 75 73 69 65 62 60 60 60 59 58 60 63 66 67 67 69 74 82 88 91 91 89 84 79 76 72 62 50 48 52 52 48 43 37 31 28 28 28 29 29 28 26 24 20 15 10 7 12 16 16 19 28 33 32 32 36 37 38 37 32 28 28 28 26
46 49 51 52 53 54 54 54 55 57 57 56 57 59 62 65 70 78 82 82 80 76 72 67 64 61 59 60 61 61 60 60 62 63 64 65 67 70 78 87 92 92 89 85 82 80 75 64 52 49 52 52 49 44 38 34 33 32 30 30 29 27 25 22 17 13 10 7 10 13 14 16 25 32 32 33 35 36 35 36 33 28 27 28 28
43 48 52 53 53 55 56 55 55 57 56 56 60 63 65 71 80 88 88 85 81 77 70 64 63 62 61 61 63 64 63 63 63 63 62 63 67 73 80 89 95 94 90 87 85 81 74 64 55 53 53 52 48 44 39 37 36 34 33 32 30 28 26 22 16 13 11 8 8 11 13 15 21 27 31 35 38 37 33 32 31 30 30 30 29
40 44 50 52 54 57 58 58 60 62 61 60 63 67 72 78 85 89 87 84 82 80 75 68 65 65 64 64 64 64 64 65 68 68 67 70 76 84 90 95 96 96 93 89 82 75 69 62 58 56 54 51 48 44 40 37 36 35 35 34 32 29 26 22 17 13 11 9 9 11 13 16 21 27 34 38 38 33 29 28 27 28 29 28 28
39 43 48 50 50 53 58 60 62 67 72 72 69 70 74 79 83 85 85 84 85 86 83 76 70 68 68 69 67 65 64 67 71 73 76 82 89 94 96 96 94 94 94 90 80 70 65 62 59 56 53 50 48 44 40 36 35 35 34 33 32 29 27 23 18 13 10 9 10 11 14 17 22 29 36 38 33 30 29 29 27 27 27 27 28
39 42 46 48 47 48 53 55 56 63 74 80 77 73 73 75 79 84 87 87 89 91 89 83 76 72 72 72 70 68 67 69 73 79 87 93 97 98 97 96 95 94 92 85 76 66 61 59 58 56 53 50 47 43 39 35 33 33 33 32 30 28 27 23 18 13 11 11 11 12 14 17 21 28 35 33 29 30 32 31 29 29 28 26 26
34 37 41 46 47 49 51 53 54 58 65 70 73 74 74 72 73 81 87 90 92 92 89 84 79 75 73 73 72 71 71 72 77 86 94 97 98 99 98 97 97 95 89 83 75 67 62 59 58 55 53 50 47 43 38 35 33 32 32 32 30 29 28 24 19 15 13 13 12 13 15 17 22 30 34 30 26 29 31 29 28 29 27 25 24
30 34 39 43 47 49 52 55 56 58 61 64 67 71 74 72 72 77 84 89 93 94 90 85 80 77 75 73 72 71 72 74 79 88 96 98 98 98 99 97 96 93 89 85 80 73 67 62 58 55 52 50 46 42 38 35 34 33 33 34 32 30 27 24 20 16 14 13 13 14 16 18 24 32 34 29 24 26 27 26 27 29 29 28 27
29 35 40 45 47 49 50 51 53 56 61 64 65 68 71 74 75 76 79 82 86 89 89 86 82 79 76 74 72 71 72 75 79 87 95 99 99 98 97 97 95 92 89 85 81 76 69 63 57 53 51 49 46 41 38 36 34 33 33 34 33 30 26 23 19 16 15 15 15 16 18 21 25 30 32 28 24 25 27 26 25 27 30 30 28
31 35 40 45 48 47 45 45 46 48 53 59 63 66 71 75 77 79 80 80 81 85 87 87 86 83 79 75 73 72 73 75 78 84 92 98 99 97 97 97 96 94 92 89 84 78 70 62 56 52 49 48 45 41 37 34 33 32 32 32 32 30 26 23 21 19 18 18 18 19 21 25 27 27 28 28 26 27 29 29 25 24 26 26 24
33 37 41 44 46 46 43 42 43 44 46 52 58 63 66 69 74 80 84 83 81 84 87 88 87 85 82 78 76 75 74 74 76 81 88 95 98 97 98 97 95 93 92 92 88 81 71 62 57 53 51 49 46 42 36 33 33 31 31 31 30 29 27 25 23 22 21 21 22 23 25 28 26 23 24 26 26 25 27 27 25 23 23 21 19
36 39 41 43 44 44 43 42 43 43 44 48 54 58 58 58 61 69 79 83 83 84 88 90 88 85 85 83 80 78 77 77 77 80 86 92 96 97 98 98 96 94 93 92 90 84 75 66 60 56 54 52 48 43 38 34 32 31 30 30 30 29 28 26 25 24 24 25 26 27 27 27 23 19 20 24 25 24 24 24 22 21 21 20 18
39 40 41 42 43 43 42 44 47 48 49 50 53 54 54 54 53 57 66 75 79 82 89 92 89 84 85 86 84 80 79 79 80 81 84 90 94 97 98 98 97 96 95 94 91 87 82 76 68 61 57 54 49 44 40 37 35 33 32 31 30 29 28 27 26 27 28 29 29 28 27 25 21 18 18 22 24 23 22 22 21 20 20 19 18
41 41 42 42 43 42 43 45 48 52 54 55 54 52 51 53 55 55 56 63 72 79 87 92 88 83 83 87 87 83 81 82 83 83 84 87 92 96 99 99 99 98 98 96 93 90 88 85 78 70 63 58 52 46 43 42 40 38 36 35 34 32 30 30 30 31 32 32 30 29 27 23 19 17 19 21 23 24 23 22 21 21 20 20 19